Miscellaneous Local Product
Issued by NWS North Platte, NE

Home | Current Version | Previous Version | Text Only | Print | Product List | Glossary On
Versions: 1 2 3 4 5 6 7 8 9 10 11 12 13 14 15 16 17 18 19 20 21 22 23 24 25 26 27 28 29 30 31 32 33 34 35 36 37 38 39 40 41 42 43 44 45 46 47 48 49 50
363
AXUS43 KLBF 231310
MISLBF


WESTERN AND NORTH CENTRAL NEBRASKA HOURLY WEATHER ROUNDUP
NATIONAL WEATHER SERVICE NORTH PLATTE NE
700 AM CST THU FEB 23 2017

NOTE: "FAIR" INDICATES FEW OR NO CLOUDS BELOW 12,000 FEET WITH NO
SIGNIFICANT WEATHER AND/OR OBSTRUCTIONS TO VISIBILITY.

NOTE: STATIONS NOT REPORTING VARIABLES SUCH AS SKY/WEATHER OR
PRESSURE ARE PROVIDED BY RAWS AND APRS NETWORKS AND ARE NOT UNDER
NATIONAL WEATHER SERVICE QUALITY CONTROL.

...OBSERVATIONS IN AND NEAR THE EASTERN PANHANDLE OF NEBRASKA...

CITY           SKY/WX    TMP DP  RH WIND       PRES   REMARKS
PINE RIDGE     LGT SNOW  27  26  96 NE13      29.80F FOG     WCI  16
CHADRON        LGT SNOW  28  26  92 NE14      29.78F VSB 3/4 WCI  17
ALLIANCE       SNOW      27  25  92 NE16      29.72S VSB 1/2 WCI  15
SIDNEY         CLOUDY    29  28  96 NE18      29.67F FOG     WCI  16
CRESCENT LAKE    N/A     29  28  97 NE13G23     N/A  WCI  19
$$

...OBSERVATIONS IN NORTHERN NEBRASKA AND FAR SOUTHERN SOUTH DAKOTA...

CITY           SKY/WX    TMP DP  RH WIND       PRES   REMARKS
WINNER         CLOUDY    30  24  78 NE17      29.88S WCI  18
VALENTINE      LGT SNOW  27  24  89 NE16      29.83S VSB 1   WCI  15
THEDFORD       CLOUDY    30  29  99 NE14G21   29.77F FOG     WCI  19
AINSWORTH      LGT SNOW  28  28 100 NE17      29.81F WCI  16
O`NEILL        CLOUDY    30  29  94 N14       29.84F WCI  20
ORD            FOG       31  29  92 NE13      29.78F VSB 3/4 WCI  21
BROKEN BOW     CLOUDY    30  29  96 NE15G24   29.75F FOG     WCI  19
VALENTINE NWR    N/A     27  26  95 NE13        N/A  WCI  16
BUTTE            N/A     27  24  87 N17         N/A  WCI  14
HALSEY           N/A     28  28  99 NE9         N/A  WCI  19
CHAMBERS         N/A     30  29  95 MISG        N/A
EWING            N/A     30  29  94 NE8         N/A  WCI  22
$$

...OBSERVATIONS IN SOUTHWEST NEBRASKA AND FAR NORTHEAST COLORADO...

CITY           SKY/WX    TMP DP  RH WIND       PRES   REMARKS
HOLYOKE        CLOUDY    34  32  93 E17       29.67S FOG     WCI  23
IMPERIAL       CLOUDY    33  32  96 E18       29.66F FOG     WCI  22
OGALLALA       CLOUDY    33  32  94 NE17G23   29.70S WCI  23
NORTH PLATTE   CLOUDY    33  29  85 NE18G28   29.71F WCI  22
MCCOOK         CLOUDY    37  35  92 NE24      29.67F WCI  26
LEXINGTON      CLOUDY    35  31  87 NE18G25   29.72R WCI  24
STAPLETON        N/A     28  27  95 NE10G18     N/A  WCI  19
GOTHENBURG       N/A     33  30  90 NE8         N/A  WCI  26
CALLAWAY         N/A     29  28  95 E18         N/A  WCI  17
$$

...OBSERVATIONS IN CENTRAL LINCOLN COUNTY AREA...

CITY           SKY/WX    TMP DP  RH WIND       PRES   REMARKS
N.P. AIRPORT   CLOUDY    33  29  85 NE18G28   29.71F WCI  22
N.P. DOWNTOWN    N/A     32  30  94 NE15G24     N/A  WCI  22
N.P. SOUTHEAST   N/A     32  29  88 NE13G26     N/A  WCI  22
N.P. HILLCREST   N/A     31  30  94 E22G32      N/A  WCI  18
$$

...SOME OBSERVATIONS FROM AROUND THE REGION...

CITY           SKY/WX    TMP DP  RH WIND       PRES   REMARKS
LARAMIE        CLOUDY    25  19  78 SE25G31   29.46F WCI   9
CHEYENNE       LGT SNOW  27  26  96 E15G24    29.58F FOG     WCI  15
DENVER         CLOUDY    28  23  81 E9        29.59F WCI  19
AKRON          CLOUDY    29  28  96 NE15      29.60F FOG     WCI  18
SCOTTSBLUFF    LGT SNOW  28  25  88 E16       29.71F VSB 1   WCI  16
RAPID CITY     CLOUDY    27  25  92 NE13      29.86R FOG     WCI  16
BISMARCK       CLOUDY    28  25  88 CALM      30.01S
PIERRE         CLOUDY    28  23  81 NE12      29.92F WCI  18
SIOUX FALLS    CLOUDY    32  27  81 NE15      29.88R WCI  22
OMAHA          CLOUDY    37  32  82 NE12      29.82R WCI  29
GRAND ISLAND   CLOUDY    33  33 100 NE20      29.76F WCI  21
KANSAS CITY    CLOUDY    49  40  71 E13       29.69F
WICHITA        MOCLDY    49  41  74 NE13      29.58S
OKLAHOMA CITY  CLOUDY    50  45  83 SE8       29.56S
DALLAS         PTCLDY    58  49  72 S12       29.62S
AMARILLO       MOCLDY    46  34  62 SW5       29.63F
DODGE CITY     CLOUDY    48  36  63 E10       29.55R
HAYS           CLOUDY    44  37  76 NE23      29.59S
GOODLAND       CLOUDY    36  33  89 E23G30    29.59F WCI  24
$$




USA.gov is the U.S. government's official web portal to all federal, state and local government web resources and services.